When you browse on this site, cookies collect data to enhance your experience and personalize the content and advertising you see.
Visit our Privacy Policy to learn more. By continuing to use the site, you agree to this use of cookies and data.
  • In Lithuania
  • List of Countries
  • For 7 days
  • Water Temperature
  • Weather Map
  • Weather Widgets
  • user-avatar
    Login

    Hourly Weather Kandahar

    Today, 25 May, Monday

    Time Temperature Precipitation Wind Pressure Humidity
    00:00 +29°C° 0 mm 2 mps 673 mmHg 7%
    01:00 +28°C° 0 mm 2 mps 673 mmHg 7%
    02:00 +27°C° 0 mm 1 mps 673 mmHg 8%
    03:00 +26°C° 0 mm 1 mps 672 mmHg 8%
    04:00 +25°C° 0 mm 1 mps 672 mmHg 9%
    05:00 +27°C° 0 mm 1 mps 673 mmHg 7%
    06:00 +29°C° 0 mm 1 mps 674 mmHg 6%
    07:00 +32°C° 0 mm 1 mps 675 mmHg 5%
    08:00 +35°C° 0 mm 2 mps 675 mmHg 4%
    09:00 +36°C° 0 mm 3 mps 676 mmHg 4%
    10:00 +38°C° 0 mm 4 mps 676 mmHg 3%
    11:00 +40°C° 0 mm 4 mps 676 mmHg 3%
    12:00 +41°C° 0 mm 4 mps 676 mmHg 3%
    13:00 +41°C° 0 mm 4 mps 675 mmHg 3%
    14:00 +41°C° 0 mm 4 mps 675 mmHg 3%
    15:00 +41°C° 0 mm 4 mps 674 mmHg 3%
    16:00 +41°C° 0 mm 5 mps 674 mmHg 3%
    17:00 +38°C° 0 mm 4 mps 673 mmHg 4%
    18:00 +36°C° 0 mm 3 mps 673 mmHg 4%
    19:00 +35°C° 0 mm 3 mps 673 mmHg 5%
    20:00 +34°C° 0 mm 3 mps 673 mmHg 5%
    21:00 +33°C° 0 mm 3 mps 673 mmHg 6%
    22:00 +30°C° 0 mm 3 mps 673 mmHg 6%
    23:00 +29°C° 0 mm 3 mps 672 mmHg 8%

    Tomorrow, 26 May, Tuesday

    Time Temperature Precipitation Wind Pressure Humidity
    00:00 +28°C° 0 mm 3 mps 672 mmHg 11%
    01:00 +27°C° 0 mm 2 mps 672 mmHg 13%
    02:00 +26°C° 0 mm 2 mps 671 mmHg 15%
    03:00 +25°C° 0 mm 1 mps 671 mmHg 17%
    04:00 +24°C° 0 mm 1 mps 671 mmHg 20%
    05:00 +26°C° 0 mm 2 mps 671 mmHg 19%
    06:00 +27°C° 0 mm 2 mps 672 mmHg 18%
    07:00 +29°C° 0 mm 2 mps 673 mmHg 17%
    08:00 +31°C° 0 mm 3 mps 673 mmHg 15%
    09:00 +34°C° 0 mm 3 mps 674 mmHg 13%
    10:00 +35°C° 0 mm 3 mps 674 mmHg 11%
    11:00 +37°C° 0 mm 4 mps 674 mmHg 10%
    12:00 +38°C° 0 mm 4 mps 674 mmHg 9%
    13:00 +41°C° 0 mm 5 mps 674 mmHg 7%
    14:00 +41°C° 0 mm 4 mps 673 mmHg 6%
    15:00 +41°C° 0 mm 4 mps 673 mmHg 6%
    16:00 +41°C° 0 mm 4 mps 672 mmHg 5%
    17:00 +38°C° 0 mm 4 mps 672 mmHg 6%
    18:00 +37°C° 0 mm 4 mps 672 mmHg 7%
    19:00 +35°C° 0 mm 3 mps 672 mmHg 7%
    20:00 +34°C° 0 mm 3 mps 672 mmHg 8%
    21:00 +33°C° 0 mm 3 mps 672 mmHg 8%
    22:00 +31°C° 0 mm 3 mps 672 mmHg 9%
    23:00 +30°C° 0 mm 3 mps 671 mmHg 10%

    Day after tomorrow, 27 May, Wednesday

    Time Temperature Precipitation Wind Pressure Humidity
    00:00 +29°C° 0 mm 2 mps 671 mmHg 12%
    01:00 +27°C° 0 mm 2 mps 670 mmHg 13%
    02:00 +26°C° 0 mm 2 mps 670 mmHg 15%
    03:00 +25°C° 0 mm 2 mps 670 mmHg 17%
    04:00 +24°C° 0 mm 1 mps 669 mmHg 18%
    05:00 +26°C° 0 mm 1 mps 670 mmHg 17%
    06:00 +28°C° 0 mm 2 mps 671 mmHg 16%
    07:00 +29°C° 0 mm 2 mps 672 mmHg 14%
    08:00 +31°C° 0 mm 2 mps 672 mmHg 13%
    09:00 +34°C° 0 mm 3 mps 672 mmHg 12%
    10:00 +35°C° 0 mm 3 mps 672 mmHg 11%
    11:00 +37°C° 0 mm 3 mps 672 mmHg 9%
    12:00 +38°C° 0 mm 3 mps 672 mmHg 8%
    13:00 +39°C° 0 mm 3 mps 672 mmHg 7%
    14:00 +39°C° 0 mm 3 mps 671 mmHg 6%
    15:00 +40°C° 0 mm 3 mps 671 mmHg 6%
    16:00 +40°C° 0 mm 3 mps 670 mmHg 6%
    17:00 +38°C° 0 mm 3 mps 670 mmHg 7%
    18:00 +37°C° 0 mm 3 mps 669 mmHg 7%
    19:00 +35°C° 0 mm 3 mps 669 mmHg 8%
    20:00 +34°C° 0 mm 3 mps 669 mmHg 10%
    21:00 +33°C° 0 mm 3 mps 669 mmHg 12%
    22:00 +31°C° 0 mm 3 mps 669 mmHg 14%
    23:00 +30°C° 0 mm 3 mps 669 mmHg 16%

    28 May, Thursday

    Time Temperature Precipitation Wind Pressure Humidity
    00:00 +29°C° 0 mm 3 mps 669 mmHg 19%
    01:00 +28°C° 0 mm 3 mps 668 mmHg 21%
    02:00 +28°C° 0 mm 3 mps 668 mmHg 22%
    03:00 +27°C° 0 mm 3 mps 668 mmHg 23%
    04:00 +26°C° 0 mm 3 mps 668 mmHg 24%
    05:00 +28°C° 0 mm 3 mps 668 mmHg 22%
    06:00 +29°C° 0 mm 3 mps 669 mmHg 20%
    07:00 +31°C° 0 mm 3 mps 670 mmHg 18%
    08:00 +34°C° 0 mm 3 mps 670 mmHg 16%
    09:00 +35°C° 0 mm 3 mps 670 mmHg 13%
    10:00 +37°C° 0 mm 2 mps 670 mmHg 11%
    11:00 +37°C° 0 mm 2 mps 670 mmHg 10%
    12:00 +37°C° 0 mm 1 mps 669 mmHg 9%
    13:00 +39°C° 0 mm 1 mps 669 mmHg 8%
    14:00 +39°C° 0 mm 1 mps 668 mmHg 8%
    15:00 +39°C° 0 mm 1 mps 668 mmHg 7%
    16:00 +40°C° 0 mm 2 mps 668 mmHg 7%
    17:00 +38°C° 0 mm 2 mps 667 mmHg 8%
    18:00 +37°C° 0 mm 3 mps 667 mmHg 10%
    19:00 +35°C° 0 mm 3 mps 667 mmHg 11%
    20:00 +35°C° 0 mm 3 mps 667 mmHg 13%
    21:00 +34°C° 0 mm 4 mps 668 mmHg 15%
    22:00 +33°C° 0 mm 4 mps 668 mmHg 17%
    23:00 +31°C° 0 mm 3 mps 668 mmHg 19%

    29 May, Friday

    Time Temperature Precipitation Wind Pressure Humidity
    00:00 +30°C° 0 mm 2 mps 667 mmHg 21%
    01:00 +29°C° 0 mm 2 mps 667 mmHg 22%
    02:00 +29°C° 0 mm 2 mps 667 mmHg 24%
    03:00 +28°C° 0 mm 2 mps 667 mmHg 25%
    04:00 +28°C° 0 mm 3 mps 667 mmHg 26%
    05:00 +29°C° 0 mm 3 mps 668 mmHg 24%
    06:00 +30°C° 0 mm 4 mps 669 mmHg 22%
    07:00 +33°C° 0 mm 5 mps 669 mmHg 21%
    08:00 +35°C° 0 mm 5 mps 670 mmHg 18%
    09:00 +37°C° 0 mm 5 mps 670 mmHg 15%
    10:00 +40°C° 0 mm 5 mps 670 mmHg 12%
    11:00 +40°C° 0 mm 4 mps 670 mmHg 10%
    12:00 +40°C° 0 mm 3 mps 670 mmHg 9%
    13:00 +41°C° 0 mm 1 mps 669 mmHg 7%
    14:00 +41°C° 0 mm 2 mps 669 mmHg 7%
    15:00 +42°C° 0 mm 3 mps 669 mmHg 7%
    16:00 +42°C° 0 mm 4 mps 669 mmHg 7%
    17:00 +40°C° 0 mm 5 mps 669 mmHg 10%
    18:00 +38°C° 0 mm 7 mps 669 mmHg 14%
    19:00 +35°C° 0 mm 8 mps 669 mmHg 17%
    20:00 +34°C° 0 mm 8 mps 670 mmHg 19%
    21:00 +33°C° 0 mm 7 mps 670 mmHg 21%
    22:00 +32°C° 0 mm 6 mps 670 mmHg 24%
    23:00 +30°C° 0 mm 7 mps 670 mmHg 25%

    30 May, Saturday

    Time Temperature Precipitation Wind Pressure Humidity
    00:00 +30°C° 0 mm 7 mps 670 mmHg 26%
    01:00 +29°C° 0 mm 7 mps 670 mmHg 27%
    02:00 +29°C° 0 mm 6 mps 670 mmHg 28%
    03:00 +28°C° 0 mm 5 mps 670 mmHg 29%
    04:00 +28°C° 0 mm 5 mps 669 mmHg 31%
    05:00 +29°C° 0 mm 5 mps 670 mmHg 28%
    06:00 +30°C° 0 mm 5 mps 671 mmHg 26%
    07:00 +32°C° 0 mm 6 mps 671 mmHg 23%
    08:00 +34°C° 0 mm 5 mps 672 mmHg 20%
    09:00 +36°C° 0 mm 4 mps 672 mmHg 18%
    10:00 +37°C° 0 mm 3 mps 672 mmHg 15%
    11:00 +38°C° 0 mm 3 mps 672 mmHg 14%
    12:00 +39°C° 0 mm 3 mps 672 mmHg 12%
    13:00 +40°C° 0 mm 2 mps 672 mmHg 11%
    14:00 +40°C° 0 mm 3 mps 672 mmHg 11%
    15:00 +41°C° 0 mm 4 mps 671 mmHg 10%
    16:00 +42°C° 0 mm 4 mps 671 mmHg 10%
    17:00 +39°C° 0.1 mm 3 mps 671 mmHg 11%
    18:00 +37°C° 0.1 mm 2 mps 670 mmHg 12%
    19:00 +35°C° 0.1 mm 1 mps 670 mmHg 13%
    20:00 +35°C° 0 mm 3 mps 670 mmHg 16%
    21:00 +34°C° 0 mm 4 mps 671 mmHg 18%
    22:00 +32°C° 0 mm 5 mps 671 mmHg 21%
    23:00 +30°C° 0 mm 3 mps 670 mmHg 23%
    Show more